KB1YTR-1 Weather Reports


time (UTC)temp
C
wind
direction
speed
KPH
gust
KPH
rain 1hr
cm
rain 24hr
cm
rain mn
cm
humidity
%
barometer
mb
20260503225037 16 271 6.4 22.5 0.00 0.00 0.00 31 1003.1
20260503223757 17 297 11.3 25.7 0.00 0.00 0.00 28 1003.1
20260503222332 18 308 11.3 20.9 0.00 0.00 0.00 30 1003.0
20260503220952 17 275 4.8 30.6 0.00 0.00 0.00 32 1002.9
20260503215602 18 295 17.7 17.7 0.00 0.00 0.00 29 1003.1
20260503214332 17 318 9.7 22.5 0.00 0.00 0.00 30 1003.1
20260503213007 17 295 9.7 25.7 0.00 0.00 0.00 31 1003.1
20260503211622 17 292 8.0 27.4 0.00 0.00 0.00 33 1003.5
20260503210142 17 287 6.4 14.5 0.00 0.00 0.00 32 1003.5
20260503204907 17 302 8.0 30.6 0.00 0.00 0.00 31 1003.6
20260503203527 16 269 17.7 24.1 0.00 0.00 0.00 31 1003.7
20260503202047 17 275 9.7 19.3 0.00 0.00 0.00 31 1003.9
20260503200707 17 335 16.1 19.3 0.00 0.00 0.00 32 1004.1
20260503195402 16 292 4.8 19.3 0.00 0.00 0.00 32 1004.0
20260503194142 16 289 19.3 33.8 0.00 0.00 0.00 31 1004.5
20260503192647 16 267 4.8 12.9 0.00 0.00 0.00 29 1004.7
20260503191357 16 326 20.9 24.1 0.00 0.00 0.00 27 1004.5
20260503185942 16 266 11.3 27.4 0.00 0.00 0.00 26 1004.6
20260503184555 15 306 12.9 32.2 0.00 0.00 0.00 27 1004.8
20260503183327 16 338 11.3 17.7 0.00 0.00 0.00 26 1004.9
20260503182007 16 271 12.9 16.1 0.00 0.00 0.00 24 1005.0
20260503180628 16 340 6.4 14.5 0.00 0.00 0.00 25 1005.0
20260503175217 15 313 11.3 19.3 0.00 0.00 0.00 25 1005.3
20260503173922 15 292 1.6 22.5 0.00 0.00 0.00 26 1005.3
20260503172612 15 315 9.7 30.6 0.00 0.00 0.00 26 1005.3
20260503171257 15 306 6.4 24.1 0.00 0.00 0.00 26 1005.3
20260503131042 11 325 3.2 8.0 0.00 0.00 0.00 68 1005.3
20260503120151 8 300 1.6 8.0 0.00 0.00 0.00 72 1004.9
20260503100117 6 10 1.6 4.8 0.00 0.00 0.00 82 1005.1
20260503081557 8 224 1.6 3.2 0.00 0.00 0.00 71 1005.4
20260503080127 9 0 0.0 1.6 0.00 0.00 0.00 72 1005.5
20260503071752 9 0 0.0 3.2 0.00 0.00 0.00 74 1006.0
20260503070530 10 180 3.2 4.8 0.00 0.00 0.00 72 1005.9
20260503054047 9 0 0.0 1.6 0.00 0.00 0.00 81 1007.2
20260503052832 10 165 1.6 3.2 0.00 0.00 0.00 76 1007.2
20260503051447 10 76 1.6 3.2 0.00 0.00 0.00 78 1007.4
20260503050247 10 91 1.6 3.2 0.00 0.00 0.00 76 1007.5
20260503044827 10 0 0.0 0.0 0.00 0.00 0.00 76 1007.5
20260503043522 10 325 1.6 3.2 0.00 0.00 0.00 74 1007.7
20260503042232 10 0 0.0 1.6 0.00 0.00 0.00 75 1007.5
20260503040822 11 124 3.2 3.2 0.00 0.00 0.00 74 1007.8
20260503035612 11 262 1.6 3.2 0.00 0.00 0.00 68 1008.1
20260503034127 11 314 1.6 1.6 0.00 0.00 0.00 68 1008.3
20260503032907 12 318 4.8 8.0 0.00 0.00 0.00 66 1008.5
20260503031451 12 331 3.2 11.3 0.00 0.00 0.00 62 1008.6
20260503030147 12 283 8.0 16.1 0.00 0.00 0.00 60 1008.7
20260503024812 12 326 3.2 4.8 0.00 0.00 0.00 58 1008.7
20260503023548 13 301 4.8 8.0 0.00 0.00 0.00 56 1008.8
20260503022102 13 316 8.0 8.0 0.00 0.00 0.00 53 1008.8
20260503020602 13 303 8.0 17.7 0.00 0.00 0.00 50 1008.3
20260503015317 14 289 9.7 14.5 0.00 0.00 0.00 49 1008.5
20260503014107 14 287 9.7 17.7 0.00 0.00 0.00 47 1008.3
20260503012747 15 287 11.3 25.7 0.00 0.00 0.00 45 1008.3
20260503011417 15 296 6.4 24.1 0.00 0.00 0.00 43 1007.9
20260503010152 15 302 3.2 9.7 0.00 0.00 0.00 45 1008.2
20260503004742 15 202 4.8 6.4 0.00 0.00 0.00 43 1007.9
20260503003447 15 273 1.6 9.7 0.00 0.00 0.00 43 1008.2
20260503002242 15 196 6.4 14.5 0.00 0.00 0.00 42 1008.1
20260503000752 15 163 3.2 6.4 0.00 0.00 0.00 41 1008.5
20260502235422 15 215 6.4 8.0 0.00 0.00 0.00 42 1008.6
20260502234202 15 278 4.8 6.4 0.00 0.00 0.00 41 1008.6
20260502232752 15 289 1.6 9.7 0.00 0.00 0.00 40 1008.8
20260502231432 15 175 1.6 14.5 0.00 0.00 0.00 39 1008.8
20260502230052 16 267 3.2 9.7 0.00 0.00 0.00 39 1009.0